Regional Weather Roundup
Issued by NWS Jackson, KY

Home | Current Version | Previous Version | Graphics & Text | Print | Product List | Glossary On
Versions: 1 2 3 4 5 6 7 8 9 10 11 12 13 14 15 16 17 18 19 20 21 22 23 24 25 26 27 28 29 30 31 32 33 34 35 36 37 38 39 40 41 42 43 44 45 46 47 48 49 50
000
ASUS43 KJKL 220405
RWRJKL

EAST KENTUCKY HOURLY WEATHER ROUNDUP
NATIONAL WEATHER SERVICE JACKSON KY
1100 PM EST FRI NOV 21 2014

NOTE: "FAIR" INDICATES FEW OR NO CLOUDS BELOW 12,000 FEET WITH
NO SIGNIFICANT WEATHER AND/OR OBSTRUCTIONS TO VISIBILITY.

* THESE REPORTS ARE NOT UNDER NWS QUALITY CONTROL AND MAY NOT
  REPORT WEATHER SUCH AS PRECIPITATION AND FOG.

KYZ079-080-083-085-087-088-110-112-115-119-120-220500
...EASTERN KENTUCKY...

CITY           SKY/WX    TMP DP  RH WIND       PRES   REMARKS
JACKSON        CLEAR     32   9  38 E3        30.40S
LONDON         CLEAR     27  18  69 CALM      30.41S
SOMERSET*      CLEAR     27  19  74 CALM      30.42F
MONTICELLO*    PTCLDY    26  20  78 CALM      30.42F
MIDDLESBORO*   CLEAR     25  21  82 CALM      30.44S
HARLAN APT*    CLEAR     30  18  59 E3        30.42S
BIG SANDY*     CLEAR     28  15  57 CALM      30.42S
MOREHEAD APT*  CLEAR     30   9  40 VRB5      30.43F WCI  25
$$

KYZ035-036-041-042-044-050-067-078-099-220500
...CENTRAL KENTUCKY...

CITY           SKY/WX    TMP DP  RH WIND       PRES   REMARKS
MT STERLING*   CLEAR     27  14  59 S5        30.42F WCI  21
FLEMING/MASON* CLEAR     25  10  53 SE5       30.43S WCI  19
DANVILLE*      CLEAR     27  19  74 S3        30.39F
RICHMOND*      CLEAR     28  14  54 SE3       30.40S
LEXINGTON      CLEAR     30  13  49 SE9       30.39F WCI  22
FRANKFORT      CLEAR     28  14  55 SE5       30.38F WCI  23
$$

KYZ091>093-OHZ055-061-077-WVZ005-015-034-035-042-220500
...SOUTHERN OHIO/WEST VIRGINIA...

CITY           SKY/WX    TMP DP  RH WIND       PRES   REMARKS
COVINGTON      CLEAR     26  10  50 SE6       30.38F WCI  19
COLUMBUS       MOCLDY    22   8  55 SE5       30.41F WCI  16
DAYTON         CLEAR     22  13  68 SE7       30.38F WCI  13
WILMINGTON     CLEAR     19   9  65 SE6       30.39F WCI  11
HUNTINGTON     CLEAR     24  13  62 E3        30.42F
CHARLESTON     CLEAR     23  13  65 CALM      30.43F
PINEVILLE*     CLEAR     23  21  92 MISG      30.48S
BECKLEY        CLEAR     28   7  41 SE8       30.39S WCI  20
BLUEFIELD      CLEAR     31   1  28 CALM      30.40S
$$

VAZ002-007-008-TNZ017-027-036-066-071-220500
...SOUTHWEST VIRGINIA/EAST TENNESSEE...

CITY           SKY/WX    TMP DP  RH WIND       PRES   REMARKS
WISE*          CLEAR     32  10  40 SW6       30.40R WCI  26
JONESVILLE*    CLEAR     23  18  80 CALM      30.46S
ABINGDON*      CLEAR     31  14  49 E9        30.42S WCI  23
BRISTOL        CLEAR     25  16  68 N3        30.44S
KNOXVILLE      PTCLDY    34  19  54 NE5       30.43R WCI  30
OAK RIDGE      CLEAR     31  23  72 CALM      30.46R
CROSSVILLE     PTCLDY    32  22  66 CALM      30.40S
NASHVILLE      CLOUDY    45  25  45 SE3       30.37S
$$

...KEY TO REMARKS...
VSB - VISIBILITY IN MILES
WCI - WIND CHILL INDEX
HX  - HEAT INDEX

$$


USA.gov is the U.S. government's official web portal to all federal, state and local government web resources and services.